EJA285 KTEB-KELM

Flight info

Callsign EJA285
Flight time 0h 38m
Altitude 28000
Route NEION Q232 STUBN
Aircraft C700/M-SBDGHM1RWXY/LB2

Departure

Time 2026-05-07 00:00
Airport Teterboro Airport (KTEB)

Arrival

Time 2026-05-07 00:38
Airport Elmira Corning Regional Airport (KELM)
Time Latitude Longitude Altitude Speed Heading
2026-05-06 23:36 40.84650 -74.06703 12 ft 0 kts 229°
2026-05-06 23:45 40.84652 -74.06700 11 ft 0 kts 53°
2026-05-06 23:52 40.84658 -74.06689 12 ft 4 kts 53°
2026-05-06 23:53 40.84678 -74.06683 12 ft 3 kts 336°
2026-05-06 23:53 40.84679 -74.06684 12 ft 0 kts 327°
2026-05-06 23:54 40.84699 -74.06704 12 ft 6 kts 321°
2026-05-06 23:54 40.84747 -74.06706 12 ft 10 kts 47°
2026-05-06 23:54 40.84798 -74.06628 13 ft 12 kts 49°
2026-05-06 23:55 40.84862 -74.06537 15 ft 15 kts 47°
2026-05-06 23:55 40.84942 -74.06420 14 ft 20 kts 49°
2026-05-06 23:55 40.85039 -74.06275 14 ft 23 kts 47°
2026-05-06 23:55 40.85125 -74.06147 10 ft 15 kts 49°
2026-05-06 23:56 40.85192 -74.06048 10 ft 15 kts 49°
2026-05-06 23:56 40.85270 -74.05934 9 ft 19 kts 49°
2026-05-06 23:56 40.85367 -74.05791 11 ft 19 kts 49°
2026-05-06 23:56 40.85433 -74.05694 12 ft 16 kts 48°
2026-05-06 23:57 40.85504 -74.05592 13 ft 15 kts 47°
2026-05-06 23:57 40.85574 -74.05490 17 ft 15 kts 49°
2026-05-06 23:57 40.85633 -74.05400 14 ft 9 kts 48°
2026-05-06 23:57 40.85676 -74.05340 14 ft 7 kts 36°
2026-05-06 23:58 40.85721 -74.05361 15 ft 9 kts 317°
2026-05-06 23:58 40.85756 -74.05415 14 ft 8 kts 288°
2026-05-06 23:58 40.85742 -74.05458 14 ft 0 kts 225°
2026-05-06 23:59 40.85732 -74.05471 14 ft 12 kts 224°
2026-05-06 23:59 40.85458 -74.05871 11 ft 111 kts 227°
2026-05-06 23:59 40.84765 -74.06911 259 ft 179 kts 228°
2026-05-06 23:59 40.83840 -74.08357 548 ft 219 kts 231°
2026-05-07 00:00 40.82990 -74.09943 591 ft 208 kts 236°
2026-05-07 00:00 40.82402 -74.11672 692 ft 213 kts 249°
2026-05-07 00:00 40.81841 -74.13508 1531 ft 215 kts 249°
2026-05-07 00:00 40.81620 -74.15465 1527 ft 219 kts 266°
2026-05-07 00:01 40.81615 -74.17496 2595 ft 226 kts 268°
2026-05-07 00:01 40.81583 -74.19615 3885 ft 233 kts 268°
2026-05-07 00:01 40.81538 -74.21768 5430 ft 235 kts 267°
2026-05-07 00:01 40.81545 -74.23949 6924 ft 241 kts 275°
2026-05-07 00:02 40.81677 -74.24681 7401 ft 244 kts 285°
2026-05-07 00:02 40.83642 -74.27492 9767 ft 269 kts 314°
2026-05-07 00:02 40.85207 -74.28965 10021 ft 270 kts 316°
2026-05-07 00:02 40.86733 -74.30289 10027 ft 265 kts 317°
2026-05-07 00:03 40.88302 -74.31644 10032 ft 274 kts 317°
2026-05-07 00:03 40.89891 -74.33002 10029 ft 272 kts 317°
2026-05-07 00:03 40.91488 -74.34364 10026 ft 274 kts 317°
2026-05-07 00:03 40.93092 -74.35734 10047 ft 275 kts 317°
2026-05-07 00:04 40.94720 -74.37097 10327 ft 277 kts 318°
2026-05-07 00:04 40.96339 -74.38377 11498 ft 261 kts 320°
2026-05-07 00:04 40.97884 -74.39502 13345 ft 246 kts 319°
2026-05-07 00:04 40.99344 -74.40573 14919 ft 233 kts 318°
2026-05-07 00:05 41.00766 -74.41645 15947 ft 245 kts 318°
2026-05-07 00:05 41.02268 -74.42779 16000 ft 246 kts 319°
2026-05-07 00:05 41.03801 -74.43909 16014 ft 267 kts 319°
2026-05-07 00:05 41.05459 -74.45155 16567 ft 280 kts 320°
2026-05-07 00:06 41.07203 -74.46438 17028 ft 296 kts 320°
2026-05-07 00:06 41.09042 -74.47810 17034 ft 307 kts 321°
2026-05-07 00:06 41.10906 -74.49187 17041 ft 307 kts 321°
2026-05-07 00:06 41.12764 -74.50568 17043 ft 307 kts 321°
2026-05-07 00:07 41.14630 -74.51961 17047 ft 306 kts 321°
2026-05-07 00:07 41.16487 -74.53351 17047 ft 307 kts 321°
2026-05-07 00:07 41.18354 -74.54744 17043 ft 307 kts 321°
2026-05-07 00:07 41.20291 -74.56208 17051 ft 338 kts 321°
2026-05-07 00:08 41.22290 -74.57988 17048 ft 352 kts 313°
2026-05-07 00:08 41.24080 -74.60193 17051 ft 350 kts 306°
2026-05-07 00:08 41.25617 -74.62658 17048 ft 362 kts 302°
2026-05-07 00:08 41.27245 -74.65313 17042 ft 371 kts 303°
2026-05-07 00:09 41.28895 -74.67940 17049 ft 372 kts 303°
2026-05-07 00:09 41.30545 -74.70623 17042 ft 374 kts 302°
2026-05-07 00:09 41.32175 -74.73302 17042 ft 372 kts 302°
2026-05-07 00:09 41.33815 -74.75978 17038 ft 374 kts 303°
2026-05-07 00:10 41.35469 -74.78668 17040 ft 376 kts 303°
2026-05-07 00:10 41.37117 -74.81356 17035 ft 373 kts 302°
2026-05-07 00:10 41.38753 -74.84034 17035 ft 373 kts 302°
2026-05-07 00:10 41.40370 -74.86684 17038 ft 374 kts 302°
2026-05-07 00:11 41.42014 -74.89377 17046 ft 375 kts 302°
2026-05-07 00:11 41.43658 -74.92066 17050 ft 374 kts 302°
2026-05-07 00:11 41.45298 -74.94758 17057 ft 374 kts 302°
2026-05-07 00:11 41.46940 -74.97456 17055 ft 375 kts 302°
2026-05-07 00:12 41.48586 -75.00163 17055 ft 377 kts 302°
2026-05-07 00:12 41.50233 -75.02869 17056 ft 374 kts 302°
2026-05-07 00:12 41.51868 -75.05557 17060 ft 373 kts 302°
2026-05-07 00:12 41.53501 -75.08249 17064 ft 373 kts 302°
2026-05-07 00:13 41.55129 -75.10946 17064 ft 373 kts 302°
2026-05-07 00:13 41.56597 -75.13765 17060 ft 367 kts 294°
2026-05-07 00:13 41.57764 -75.16777 17064 ft 363 kts 288°
2026-05-07 00:13 41.58658 -75.19867 17071 ft 361 kts 285°
2026-05-07 00:14 41.59563 -75.23002 17070 ft 362 kts 286°
2026-05-07 00:14 41.60483 -75.26134 17080 ft 362 kts 286°
2026-05-07 00:14 41.61382 -75.29271 17075 ft 361 kts 285°
2026-05-07 00:14 41.62270 -75.32400 17077 ft 359 kts 285°
2026-05-07 00:15 41.63166 -75.35524 17077 ft 360 kts 285°
2026-05-07 00:15 41.64065 -75.38655 17090 ft 361 kts 285°
2026-05-07 00:15 41.64960 -75.41784 17071 ft 360 kts 285°
2026-05-07 00:15 41.65852 -75.44911 17087 ft 360 kts 285°
2026-05-07 00:16 41.66744 -75.48039 17094 ft 359 kts 285°
2026-05-07 00:16 41.67617 -75.51107 17084 ft 359 kts 285°
2026-05-07 00:16 41.68505 -75.54230 17091 ft 360 kts 285°
2026-05-07 00:16 41.69394 -75.57358 17102 ft 359 kts 285°
2026-05-07 00:17 41.70281 -75.60480 17098 ft 359 kts 285°
2026-05-07 00:17 41.71165 -75.63599 17103 ft 358 kts 285°
2026-05-07 00:17 41.72049 -75.66710 17106 ft 357 kts 285°
2026-05-07 00:17 41.72926 -75.69827 17107 ft 358 kts 285°
2026-05-07 00:18 41.73790 -75.72877 17101 ft 339 kts 285°
2026-05-07 00:18 41.74600 -75.75714 17013 ft 317 kts 284°
2026-05-07 00:18 41.75360 -75.78428 16688 ft 306 kts 284°
2026-05-07 00:18 41.76096 -75.81068 16426 ft 302 kts 284°
2026-05-07 00:19 41.76835 -75.83711 16166 ft 304 kts 284°
2026-05-07 00:19 41.77571 -75.86330 15918 ft 305 kts 284°
2026-05-07 00:19 41.78238 -75.89021 15667 ft 302 kts 279°
2026-05-07 00:19 41.78656 -75.91768 15419 ft 300 kts 275°
2026-05-07 00:20 41.79068 -75.94499 15174 ft 299 kts 278°
2026-05-07 00:20 41.79589 -75.97192 14931 ft 298 kts 279°
2026-05-07 00:20 41.80120 -75.99876 14684 ft 298 kts 278°
2026-05-07 00:20 41.80614 -76.02573 14451 ft 298 kts 278°
2026-05-07 00:21 41.81102 -76.05272 14218 ft 299 kts 278°
2026-05-07 00:21 41.81601 -76.07972 13983 ft 297 kts 278°
2026-05-07 00:21 41.82100 -76.10661 13752 ft 297 kts 278°
2026-05-07 00:21 41.82591 -76.13335 13494 ft 296 kts 278°
2026-05-07 00:22 41.83081 -76.16016 13222 ft 296 kts 279°
2026-05-07 00:22 41.83569 -76.18666 12844 ft 296 kts 279°
2026-05-07 00:22 41.84059 -76.21324 12456 ft 288 kts 279°
2026-05-07 00:22 41.84525 -76.23850 12082 ft 271 kts 279°
2026-05-07 00:23 41.84961 -76.26241 11688 ft 257 kts 278°
2026-05-07 00:23 41.85374 -76.28522 11312 ft 247 kts 279°
2026-05-07 00:23 41.85774 -76.30719 10931 ft 239 kts 279°
2026-05-07 00:23 41.86163 -76.32862 10555 ft 235 kts 279°
2026-05-07 00:24 41.86550 -76.35001 10187 ft 236 kts 279°
2026-05-07 00:24 41.86939 -76.37144 9825 ft 237 kts 279°
2026-05-07 00:24 41.87332 -76.39298 9424 ft 238 kts 279°
2026-05-07 00:24 41.87722 -76.41459 9024 ft 239 kts 279°
2026-05-07 00:25 41.88109 -76.43590 8639 ft 235 kts 280°
2026-05-07 00:25 41.88489 -76.45690 8255 ft 229 kts 280°
2026-05-07 00:25 41.88862 -76.47754 7868 ft 226 kts 281°
2026-05-07 00:25 41.89227 -76.49789 7492 ft 223 kts 281°
2026-05-07 00:26 41.89591 -76.51806 7109 ft 221 kts 281°
2026-05-07 00:26 41.89950 -76.53797 6737 ft 218 kts 282°
2026-05-07 00:26 41.90304 -76.55769 6368 ft 217 kts 282°
2026-05-07 00:26 41.90656 -76.57726 6011 ft 214 kts 282°
2026-05-07 00:27 41.90994 -76.59603 5569 ft 206 kts 283°
2026-05-07 00:27 41.91328 -76.61502 5244 ft 207 kts 281°
2026-05-07 00:27 41.91278 -76.63409 4955 ft 206 kts 260°
2026-05-07 00:27 41.90951 -76.65266 4478 ft 211 kts 259°
2026-05-07 00:28 41.90596 -76.67253 4019 ft 219 kts 258°
2026-05-07 00:28 41.90236 -76.69245 4017 ft 225 kts 258°
2026-05-07 00:28 41.89864 -76.71332 4023 ft 233 kts 258°
2026-05-07 00:28 41.89486 -76.73452 4023 ft 235 kts 258°
2026-05-07 00:29 41.89109 -76.75579 4022 ft 233 kts 258°
2026-05-07 00:29 41.88734 -76.77683 4014 ft 231 kts 259°
2026-05-07 00:30 41.87640 -76.83992 4013 ft 231 kts 266°
2026-05-07 00:30 41.87856 -76.86051 4001 ft 216 kts 288°
2026-05-07 00:30 41.88300 -76.87926 4005 ft 208 kts 288°
2026-05-07 00:30 41.88748 -76.89761 4000 ft 206 kts 290°
2026-05-07 00:31 41.89489 -76.91394 4007 ft 206 kts 308°
2026-05-07 00:31 41.90391 -76.92861 4005 ft 207 kts 309°
2026-05-07 00:31 41.91305 -76.94362 3998 ft 207 kts 308°
2026-05-07 00:31 41.92217 -76.95859 4006 ft 207 kts 308°
2026-05-07 00:32 41.93134 -76.97348 3996 ft 208 kts 309°
2026-05-07 00:32 41.94072 -76.98875 3715 ft 209 kts 309°
2026-05-07 00:32 41.94970 -77.00334 3705 ft 201 kts 309°
2026-05-07 00:32 41.95874 -77.01814 3699 ft 208 kts 309°
2026-05-07 00:33 41.96791 -77.03316 3701 ft 205 kts 309°
2026-05-07 00:33 41.97751 -77.04598 3692 ft 188 kts 328°
2026-05-07 00:33 41.99041 -77.04902 3214 ft 200 kts
2026-05-07 00:33 42.00326 -77.04286 3116 ft 189 kts 19°
2026-05-07 00:34 42.01514 -77.03656 3107 ft 180 kts 18°
2026-05-07 00:34 42.02687 -77.03033 3098 ft 183 kts 19°
2026-05-07 00:34 42.03883 -77.02396 3111 ft 187 kts 19°
2026-05-07 00:34 42.05069 -77.01759 3099 ft 182 kts 19°
2026-05-07 00:35 42.06212 -77.01141 3115 ft 168 kts 19°
2026-05-07 00:35 42.07271 -77.00560 3111 ft 172 kts 18°
2026-05-07 00:35 42.08373 -76.99964 3111 ft 165 kts 18°
2026-05-07 00:35 42.09438 -76.99379 2980 ft 169 kts 20°
2026-05-07 00:36 42.10410 -76.98533 2828 ft 164 kts 42°
2026-05-07 00:36 42.11146 -76.97371 2535 ft 165 kts 49°
2026-05-07 00:36 42.11793 -76.96220 2127 ft 148 kts 53°
2026-05-07 00:36 42.12403 -76.95159 1891 ft 140 kts 51°
2026-05-07 00:37 42.13019 -76.94185 1686 ft 128 kts 51°
2026-05-07 00:37 42.13574 -76.93290 1464 ft 120 kts 52°
2026-05-07 00:37 42.14082 -76.92424 1349 ft 118 kts 52°
2026-05-07 00:37 42.14598 -76.91582 1217 ft 118 kts 52°
2026-05-07 00:38 42.15129 -76.90730 1056 ft 120 kts 52°
2026-05-07 00:38 42.15639 -76.89887 954 ft 106 kts 51°
2026-05-07 00:38 42.16012 -76.89277 946 ft 59 kts 51°
2026-05-07 00:38 42.16216 -76.88950 949 ft 35 kts 50°
2026-05-07 00:39 42.16347 -76.88732 953 ft 28 kts 49°
2026-05-07 00:39 42.16440 -76.88607 954 ft 11 kts 14°
2026-05-07 00:39 42.16490 -76.88641 954 ft 9 kts 313°
2026-05-07 00:39 42.16510 -76.88740 952 ft 13 kts 284°
2026-05-07 00:40 42.16524 -76.88843 951 ft 12 kts 279°
2026-05-07 00:40 42.16537 -76.88961 950 ft 10 kts 278°
2026-05-07 00:40 42.16514 -76.89060 949 ft 14 kts 225°
2026-05-07 00:40 42.16436 -76.89165 949 ft 18 kts 222°
2026-05-07 00:41 42.16336 -76.89292 948 ft 22 kts 225°
2026-05-07 00:41 42.16246 -76.89412 946 ft 14 kts 224°
2026-05-07 00:41 42.16164 -76.89517 946 ft 18 kts 223°
2026-05-07 00:41 42.16082 -76.89630 946 ft 18 kts 224°
2026-05-07 00:42 42.16063 -76.89716 945 ft 11 kts 309°
2026-05-07 00:42 42.16072 -76.89727 944 ft 0 kts 320°